| time (UTC) | temp C | wind direction | speed KPH | gust KPH | rain 1hr cm | rain 24hr cm | rain mn cm | humidity % | barometer mb |
| 20260904010138 | 20 | 144 | 0.0 | 11.3 | 0.00 | 0.00 | 0.00 | 26 | 1000.8 |
| 20260904004610 | 20 | 149 | 0.0 | 1.6 | 0.00 | 0.00 | 0.00 | 25 | 1000.6 |
| 20260904003108 | 21 | 128 | 0.0 | 17.7 | 0.00 | 0.00 | 0.00 | 25 | 1000.7 |
| 20260904001608 | 21 | 173 | 0.0 | 12.9 | 0.00 | 0.00 | 0.00 | 25 | 1000.8 |
| 20260904000104 | 21 | 177 | 1.6 | 14.5 | 0.00 | 0.00 | 0.00 | 24 | 1000.8 |
| 20260903234552 | 21 | 156 | 0.0 | 0.0 | 0.00 | 0.00 | 0.00 | 24 | 1000.9 |
| 20260903233054 | 22 | 196 | 0.0 | 0.0 | 0.00 | 0.00 | 0.00 | 24 | 1000.9 |
| 20260903231558 | 22 | 165 | 1.6 | 12.9 | 0.00 | 0.00 | 0.00 | 22 | 1000.8 |
| 20260903230114 | 22 | 268 | 0.0 | 11.3 | 0.00 | 0.00 | 0.00 | 22 | 1000.9 |
| 20260903224612 | 22 | 169 | 0.0 | 0.0 | 0.00 | 0.00 | 0.00 | 23 | 1000.9 |
| 20260903223049 | 22 | 250 | 0.0 | 9.7 | 0.00 | 0.00 | 0.00 | 26 | 1001.1 |
| 20260903221541 | 22 | 125 | 0.0 | 9.7 | 0.00 | 0.00 | 0.00 | 26 | 1001.2 |
| 20260903220030 | 22 | 138 | 0.0 | 3.2 | 0.00 | 0.00 | 0.00 | 26 | 1001.2 |
| 20260903214603 | 22 | 248 | 0.0 | 1.6 | 0.00 | 0.00 | 0.00 | 25 | 1001.1 |
| 20260903213042 | 23 | 184 | 0.0 | 1.6 | 0.00 | 0.00 | 0.00 | 24 | 1001.3 |
| 20260903211519 | 23 | 211 | 0.0 | 1.6 | 0.00 | 0.00 | 0.00 | 26 | 1001.4 |
| 20260903210123 | 22 | 228 | 0.0 | 3.2 | 0.00 | 0.00 | 0.00 | 25 | 1001.5 |
| 20260903204550 | 22 | 245 | 0.0 | 0.0 | 0.00 | 0.00 | 0.00 | 27 | 1001.6 |
| 20260903203106 | 22 | 194 | 0.0 | 11.3 | 0.00 | 0.00 | 0.00 | 28 | 1001.7 |
| 20260903201516 | 22 | 162 | 0.0 | 1.6 | 0.00 | 0.00 | 0.00 | 24 | 1002.0 |
| 20260903200010 | 22 | 231 | 0.0 | 14.5 | 0.00 | 0.00 | 0.00 | 23 | 1002.0 |
| 20260903194502 | 22 | 331 | 0.0 | 12.9 | 0.00 | 0.00 | 0.00 | 24 | 1002.1 |
| 20260903193145 | 22 | 308 | 0.0 | 0.0 | 0.00 | 0.00 | 0.00 | 22 | 1002.2 |
| 20260903191519 | 21 | 202 | 0.0 | 3.2 | 0.00 | 0.00 | 0.00 | 24 | 1002.6 |
| 20260903190036 | 21 | 274 | 1.6 | 24.1 | 0.00 | 0.00 | 0.00 | 22 | 1002.7 |
| 20260903184510 | 21 | 305 | 0.0 | 17.7 | 0.00 | 0.00 | 0.00 | 19 | 1002.8 |
| 20260903183111 | 21 | 261 | 0.0 | 4.8 | 0.00 | 0.00 | 0.00 | 24 | 1003.0 |
| 20260903181606 | 21 | 212 | 0.0 | 3.2 | 0.00 | 0.00 | 0.00 | 25 | 1003.3 |
| 20260903180055 | 20 | 247 | 0.0 | 9.7 | 0.00 | 0.00 | 0.00 | 27 | 1003.6 |
| 20260903174554 | 20 | 275 | 0.0 | 12.9 | 0.00 | 0.00 | 0.00 | 29 | 1003.6 |
| 20260903173042 | 20 | 265 | 0.0 | 17.7 | 0.00 | 0.00 | 0.00 | 30 | 1003.6 |
| 20260903171521 | 20 | 243 | 0.0 | 17.7 | 0.00 | 0.00 | 0.00 | 31 | 1003.6 |
| 20260903170016 | 19 | 273 | 0.0 | 0.0 | 0.00 | 0.00 | 0.00 | 34 | 1003.6 |
| 20260903164503 | 18 | 248 | 0.0 | 12.9 | 0.00 | 0.00 | 0.00 | 37 | 1003.6 |
| 20260903163103 | 17 | 252 | 0.0 | 19.3 | 0.00 | 0.00 | 0.00 | 39 | 1003.5 |
| 20260903161603 | 17 | 230 | 0.0 | 4.8 | 0.00 | 0.00 | 0.00 | 38 | 1003.1 |
| 20260903160131 | 17 | 282 | 0.0 | 0.0 | 0.00 | 0.00 | 0.00 | 39 | 1003.1 |
| 20260903154512 | 17 | 171 | 0.0 | 6.4 | 0.00 | 0.00 | 0.00 | 43 | 1003.1 |
| 20260903153014 | 17 | 143 | 0.0 | 1.6 | 0.00 | 0.00 | 0.00 | 43 | 1003.4 |
| 20260903151521 | 16 | 113 | 0.0 | 0.0 | 0.00 | 0.00 | 0.00 | 44 | 1003.4 |
| 20260903150041 | 16 | 170 | 0.0 | 0.0 | 0.00 | 0.00 | 0.00 | 46 | 1003.6 |
| 20260903144554 | 15 | 155 | 0.0 | 0.0 | 0.00 | 0.00 | 0.00 | 46 | 1003.7 |
| 20260903143110 | 15 | 163 | 0.0 | 4.8 | 0.00 | 0.00 | 0.00 | 47 | 1003.8 |
| 20260903141614 | 14 | 149 | 0.0 | 0.0 | 0.00 | 0.00 | 0.00 | 50 | 1003.7 |
| 20260903140109 | 13 | 144 | 0.0 | 3.2 | 0.00 | 0.00 | 0.00 | 53 | 1003.6 |
| 20260903134559 | 12 | 142 | 0.0 | 0.0 | 0.00 | 0.00 | 0.00 | 55 | 1003.7 |
| 20260903133034 | 11 | 172 | 0.0 | 0.0 | 0.00 | 0.00 | 0.00 | 58 | 1003.4 |
| 20260903131553 | 10 | 172 | 0.0 | 0.0 | 0.00 | 0.00 | 0.00 | 58 | 1003.3 |
| 20260903130058 | 10 | 172 | 0.0 | 1.6 | 0.00 | 0.00 | 0.00 | 59 | 1003.1 |
| 20260903124546 | 10 | 257 | 0.0 | 0.0 | 0.00 | 0.00 | 0.00 | 58 | 1003.0 |
| 20260903123051 | 11 | 260 | 0.0 | 0.0 | 0.00 | 0.00 | 0.00 | 55 | 1003.1 |
| 20260903121551 | 11 | 260 | 0.0 | 0.0 | 0.00 | 0.00 | 0.00 | 55 | 1003.0 |
| 20260903120009 | 11 | 146 | 0.0 | 0.0 | 0.00 | 0.00 | 0.00 | 55 | 1003.0 |
| 20260903114513 | 11 | 146 | 0.0 | 0.0 | 0.00 | 0.00 | 0.00 | 56 | 1003.0 |
| 20260903113040 | 10 | 214 | 0.0 | 0.0 | 0.00 | 0.00 | 0.00 | 55 | 1003.0 |
| 20260903111554 | 11 | 214 | 0.0 | 0.0 | 0.00 | 0.00 | 0.00 | 53 | 1003.0 |
| 20260903110009 | 11 | 254 | 0.0 | 0.0 | 0.00 | 0.00 | 0.00 | 50 | 1003.0 |
| 20260903104521 | 12 | 254 | 0.0 | 0.0 | 0.00 | 0.00 | 0.00 | 49 | 1002.9 |
| 20260903103057 | 12 | 207 | 0.0 | 11.3 | 0.00 | 0.00 | 0.00 | 50 | 1003.0 |
| 20260903101612 | 10 | 161 | 0.0 | 0.0 | 0.00 | 0.00 | 0.00 | 53 | 1002.7 |
| 20260903100036 | 10 | 155 | 0.0 | 0.0 | 0.00 | 0.00 | 0.00 | 57 | 1002.9 |
| 20260903094544 | 10 | 156 | 0.0 | 0.0 | 0.00 | 0.00 | 0.00 | 60 | 1002.8 |
| 20260903093040 | 10 | 155 | 0.0 | 0.0 | 0.00 | 0.00 | 0.00 | 59 | 1002.9 |
| 20260903091542 | 10 | 156 | 0.0 | 0.0 | 0.00 | 0.00 | 0.00 | 58 | 1002.8 |
| 20260903090056 | 11 | 155 | 0.0 | 0.0 | 0.00 | 0.00 | 0.00 | 58 | 1003.0 |
| 20260903084600 | 11 | 155 | 0.0 | 0.0 | 0.00 | 0.00 | 0.00 | 56 | 1003.1 |
| 20260903083111 | 11 | 155 | 0.0 | 0.0 | 0.00 | 0.00 | 0.00 | 55 | 1003.0 |
| 20260903081611 | 12 | 155 | 0.0 | 0.0 | 0.00 | 0.00 | 0.00 | 54 | 1003.2 |
| 20260903080007 | 12 | 111 | 0.0 | 0.0 | 0.00 | 0.00 | 0.00 | 53 | 1003.3 |
| 20260903074529 | 12 | 273 | 0.0 | 0.0 | 0.00 | 0.00 | 0.00 | 52 | 1003.5 |
| 20260903073018 | 13 | 273 | 0.0 | 0.0 | 0.00 | 0.00 | 0.00 | 49 | 1003.6 |
| 20260903071533 | 13 | 273 | 0.0 | 0.0 | 0.00 | 0.00 | 0.00 | 48 | 1003.6 |
| 20260903070002 | 13 | 172 | 0.0 | 0.0 | 0.00 | 0.00 | 0.00 | 47 | 1003.6 |
| 20260903064514 | 13 | 177 | 0.0 | 0.0 | 0.00 | 0.00 | 0.00 | 46 | 1003.7 |
| 20260903063103 | 13 | 254 | 0.0 | 0.0 | 0.00 | 0.00 | 0.00 | 47 | 1003.8 |
| 20260903061522 | 14 | 227 | 0.0 | 0.0 | 0.00 | 0.00 | 0.00 | 47 | 1003.8 |
| 20260903060042 | 14 | 211 | 0.0 | 0.0 | 0.00 | 0.00 | 0.00 | 47 | 1003.6 |
| 20260903054545 | 14 | 133 | 0.0 | 0.0 | 0.00 | 0.00 | 0.00 | 48 | 1003.6 |
| 20260903053049 | 13 | 133 | 0.0 | 0.0 | 0.00 | 0.00 | 0.00 | 48 | 1003.6 |
| 20260903051559 | 13 | 133 | 0.0 | 0.0 | 0.00 | 0.00 | 0.00 | 50 | 1003.6 |
| 20260903050115 | 13 | 133 | 0.0 | 0.0 | 0.00 | 0.00 | 0.00 | 49 | 1003.5 |
| 20260903044557 | 14 | 206 | 0.0 | 0.0 | 0.00 | 0.00 | 0.00 | 47 | 1003.6 |
| 20260903043101 | 14 | 206 | 0.0 | 0.0 | 0.00 | 0.00 | 0.00 | 45 | 1003.8 |
| 20260903041556 | 15 | 206 | 0.0 | 0.0 | 0.00 | 0.00 | 0.00 | 43 | 1003.6 |
| 20260903040104 | 15 | 206 | 0.0 | 0.0 | 0.00 | 0.00 | 0.00 | 40 | 1003.5 |
| 20260903034613 | 16 | 171 | 0.0 | 0.0 | 0.00 | 0.00 | 0.00 | 37 | 1003.7 |
| 20260903033009 | 16 | 154 | 0.0 | 0.0 | 0.00 | 0.00 | 0.00 | 36 | 1003.2 |
| 20260903031522 | 16 | 135 | 0.0 | 12.9 | 0.00 | 0.00 | 0.00 | 38 | 1003.1 |
| 20260903030034 | 16 | 157 | 0.0 | 1.6 | 0.00 | 0.00 | 0.00 | 37 | 1002.8 |
| 20260903024529 | 17 | 182 | 0.0 | 0.0 | 0.00 | 0.00 | 0.00 | 36 | 1002.8 |
| 20260903023021 | 17 | 146 | 0.0 | 0.0 | 0.00 | 0.00 | 0.00 | 35 | 1002.5 |
| 20260903021543 | 17 | 146 | 0.0 | 0.0 | 0.00 | 0.00 | 0.00 | 35 | 1002.4 |
| 20260903020053 | 17 | 150 | 0.0 | 0.0 | 0.00 | 0.00 | 0.00 | 35 | 1002.2 |
| 20260903014555 | 17 | 126 | 0.0 | 0.0 | 0.00 | 0.00 | 0.00 | 35 | 1002.2 |
| 20260903013107 | 18 | 127 | 0.0 | 1.6 | 0.00 | 0.00 | 0.00 | 33 | 1002.2 |
| 20260903011630 | 19 | 249 | 0.0 | 0.0 | 0.00 | 0.00 | 0.00 | 31 | 1002.0 |